Location: Sawmill Trailhead
(33.5800°N, 116.4497°W)
Time: 16:02:56
(UTC-07:00)

Uosat F - Visible Passes

Search period start: 30 March 2015 00:00
Search period end: 09 April 2015 00:00
Orbit: 751 x 761 km, 98.7° (Epoch: 30 March)

Date Brightness Start Highest point End Pass type
(mag) Time Alt. Az. Time Alt. Az. Time Alt. Az.
30 Mar 11.0 05:47:51 10° N 05:52:52 71° WNW 05:57:50 10° SSW visible
31 Mar 12.2 05:08:48 10° NNE 05:13:34 44° E 05:18:19 10° S visible
01 Apr 13.8 04:30:53 10° NE 04:33:58 17° E 04:37:17 10° SE visible
02 Apr 11.3 05:28:49 10° NNE 05:33:49 72° ESE 05:38:49 10° S visible
03 Apr 13.1 04:50:12 10° NE 04:54:23 27° E 04:58:39 10° SSE visible
04 Apr 11.0 05:49:01 10° N 05:54:01 70° WNW 05:58:59 10° SSW visible
05 Apr 12.2 05:09:57 10° NNE 05:14:43 44° E 05:19:29 10° S visible
06 Apr 13.8 04:32:01 10° NE 04:35:07 17° E 04:38:28 10° SE visible
07 Apr 11.3 05:29:57 10° NNE 05:34:58 73° ESE 05:39:57 10° S visible
08 Apr 13.1 04:51:19 10° NE 04:55:31 28° E 04:59:49 10° SSE visible
